Location: Buchberg
(46.9333°N, 15.8500°E)
Time: 09:10:14
(UTC+00:00)

SL-16 R/B - Pass Details

Date: 14 July 2020
Orbit: 842 x 846 km, 71.0° (Epoch: 08 August)

Event Time Altitude Azimuth Distance (km) Brightness Sun altitude
Rises 02:03:10 0° 335° (NNW) 3,417 5.7 -10.3°
Reaches altitude 10° 02:05:41 10° 340° (NNW) 2,478 5.0 -10.0°
Maximum altitude 02:11:16 55° 58° (ENE) 1,009 3.1 -9.3°
Drops below altitude 10° 02:16:49 10° 136° (SE) 2,463 4.6 -8.7°
Sets 02:19:19 0° 141° (SE) 3,394 5.3 -8.4°
